Location: Asheville, NC
(35.6000°N, 82.5500°W)
Time: 14:20:18
(UTC-05:00)

XW-2C - Pass Details

Date: 08 January 2018
Orbit: 510 x 531 km, 97.5° (Epoch: 19 January)

Event Time Altitude Azimuth Distance (km) Brightness Sun altitude
Rises 05:42:35 0° 30° (NNE) 2,650 ? -23.4°
Reaches altitude 10° 05:45:14 10° 50° (NE) 1,752 ? -22.9°
Maximum altitude 05:47:52 18° 95° (E) 1,317 ? -22.3°
Drops below altitude 10° 05:50:28 10° 139° (SE) 1,734 ? -21.8°
Sets 05:53:04 0° 159° (SSE) 2,612 ? -21.3°
